Location: Leo
(52.0556°N, 112.3605°W)
Time: 07:18:04
(UTC+00:00)

FO-29 - Pass Details

Date: 29 November 2023
Orbit: 799 x 1322 km, 98.6° (Epoch: 04 March)

Event Time Altitude Azimuth Distance (km) Brightness Sun altitude
Rises 11:11:27 0° 14° (NNE) 3,983 13.0 -36.0°
Reaches altitude 10° 11:13:56 10° 12° (NNE) 3,085 12.3 -35.6°
Enters shadow 11:18:25 43° 1° (N) 1,666 10.6 -35.0°
